TimeCDT,TemperatureF,Dew PointF,Humidity,Sea Level PressureIn,VisibilityMPH,Wind Direction,Wind SpeedMPH,Gust SpeedMPH,PrecipitationIn,Events,Conditions,WindDirDegrees,DateUTC
12:53 AM,54.0,33.1,45,29.99,10.0,ESE,10.4,-,N/A,,Clear,110,2013-03-29 05:53:00
1:53 AM,51.1,33.1,50,29.97,10.0,ESE,8.1,-,N/A,,Clear,110,2013-03-29 06:53:00
2:53 AM,51.1,33.1,50,29.96,10.0,ESE,9.2,-,N/A,,Clear,110,2013-03-29 07:53:00
3:53 AM,46.9,34.0,61,29.95,10.0,SE,9.2,-,N/A,,Clear,140,2013-03-29 08:53:00
4:53 AM,48.9,35.1,59,29.94,10.0,South,10.4,-,N/A,,Clear,180,2013-03-29 09:53:00
5:53 AM,48.0,35.1,61,29.95,10.0,West,5.8,-,N/A,,Clear,270,2013-03-29 10:53:00
6:53 AM,44.1,35.1,71,29.99,10.0,NW,8.1,-,N/A,,Clear,320,2013-03-29 11:53:00
7:53 AM,44.1,34.0,68,30.01,10.0,NNW,4.6,-,N/A,,Clear,340,2013-03-29 12:53:00
8:53 AM,48.9,36.0,61,30.02,10.0,WSW,8.1,-,N/A,,Clear,240,2013-03-29 13:53:00
9:53 AM,53.1,37.9,57,30.03,10.0,NNW,12.7,-,N/A,,Clear,330,2013-03-29 14:53:00
10:53 AM,57.0,41.0,55,30.04,10.0,NW,13.8,-,N/A,,Clear,320,2013-03-29 15:53:00
11:53 AM,62.1,42.1,48,30.01,10.0,NNW,12.7,-,N/A,,Clear,340,2013-03-29 16:53:00
12:53 PM,66.0,45.0,47,30.01,10.0,NNW,8.1,-,N/A,,Partly Cloudy,330,2013-03-29 17:53:00
1:53 PM,70.0,45.0,41,29.98,10.0,ENE,8.1,-,N/A,,Partly Cloudy,70,2013-03-29 18:53:00
2:53 PM,73.9,42.1,32,29.95,10.0,NW,6.9,-,N/A,,Partly Cloudy,310,2013-03-29 19:53:00
3:53 PM,75.9,41.0,29,29.92,10.0,ENE,5.8,-,N/A,,Clear,70,2013-03-29 20:53:00
4:53 PM,77.0,35.1,22,29.90,10.0,ESE,4.6,-,N/A,,Clear,120,2013-03-29 21:53:00
5:53 PM,77.0,37.0,24,29.89,10.0,South,9.2,-,N/A,,Clear,180,2013-03-29 22:53:00
6:53 PM,73.9,36.0,25,29.91,10.0,SW,3.5,-,N/A,,Clear,230,2013-03-29 23:53:00
7:41 PM,69.8,46.4,43,30.01,10.0,NNE,12.7,-,N/A,,Clear,30,2013-03-30 00:41:00
7:53 PM,66.9,46.9,49,29.94,10.0,NE,12.7,18.4,N/A,,Clear,40,2013-03-30 00:53:00
8:53 PM,62.1,39.0,43,29.93,10.0,SE,8.1,-,N/A,,Clear,130,2013-03-30 01:53:00
9:53 PM,57.9,41.0,53,29.94,10.0,SE,9.2,-,N/A,,Clear,130,2013-03-30 02:53:00
10:53 PM,60.1,42.1,51,29.94,10.0,South,10.4,-,N/A,,Clear,180,2013-03-30 03:53:00
11:53 PM,54.0,39.9,59,29.95,10.0,South,9.2,-,N/A,,Clear,190,2013-03-30 04:53:00